• In Deutschland
  • Länderverzeichnis
  • Für 7 Tage
  • Wassertemperatur
  • Satellitenkarten
  • Wetterkarte
  • Widgets
  • user-avatar
    Anmelden

    Stündliche Wetter Kościan

    Heute, 24 September, Montag

    Zeit Temperatur Niederschläge Wind Luftdruck Luftfeuchtigkeit
    00:00 +8°C° 0.9 mm 7 m/S 749 mmHg 87%
    01:00 +8°C° 0 mm 7 m/S 750 mmHg 86%
    02:00 +8°C° 0.3 mm 7 m/S 752 mmHg 85%
    03:00 +8°C° 0.3 mm 7 m/S 753 mmHg 85%
    04:00 +7°C° 0.3 mm 8 m/S 754 mmHg 84%
    05:00 +7°C° 0 mm 8 m/S 755 mmHg 83%
    06:00 +7°C° 0 mm 8 m/S 755 mmHg 82%
    07:00 +6°C° 0 mm 8 m/S 756 mmHg 82%
    08:00 +7°C° 0.1 mm 8 m/S 756 mmHg 78%
    09:00 +7°C° 0.1 mm 9 m/S 757 mmHg 75%
    10:00 +8°C° 0.1 mm 9 m/S 757 mmHg 72%
    11:00 +10°C° 0.2 mm 9 m/S 758 mmHg 66%
    12:00 +11°C° 0.2 mm 9 m/S 758 mmHg 61%
    13:00 +12°C° 0.2 mm 9 m/S 759 mmHg 55%
    14:00 +11°C° 0.3 mm 9 m/S 759 mmHg 55%
    15:00 +11°C° 0.3 mm 8 m/S 759 mmHg 56%
    16:00 +11°C° 0.3 mm 7 m/S 760 mmHg 56%
    17:00 +10°C° 0.1 mm 6 m/S 760 mmHg 60%
    18:00 +9°C° 0.1 mm 6 m/S 761 mmHg 64%
    19:00 +8°C° 0.1 mm 5 m/S 761 mmHg 68%
    20:00 +7°C° 0 mm 5 m/S 762 mmHg 69%
    21:00 +7°C° 0 mm 5 m/S 763 mmHg 70%
    22:00 +7°C° 0 mm 5 m/S 763 mmHg 71%
    23:00 +6°C° 0 mm 5 m/S 764 mmHg 72%

    Morgen, 25 September, Dienstag

    Zeit Temperatur Niederschläge Wind Luftdruck Luftfeuchtigkeit
    00:00 +6°C° 0 mm 5 m/S 764 mmHg 73%
    01:00 +6°C° 0 mm 5 m/S 764 mmHg 74%
    02:00 +5°C° 0 mm 5 m/S 765 mmHg 74%
    03:00 +5°C° 0 mm 5 m/S 765 mmHg 75%
    04:00 +5°C° 0 mm 5 m/S 766 mmHg 76%
    05:00 +5°C° 0 mm 5 m/S 766 mmHg 76%
    06:00 +5°C° 0 mm 5 m/S 767 mmHg 76%
    07:00 +5°C° 0 mm 5 m/S 768 mmHg 76%
    08:00 +7°C° 0 mm 5 m/S 768 mmHg 68%
    09:00 +9°C° 0 mm 5 m/S 769 mmHg 61%
    10:00 +12°C° 0 mm 5 m/S 769 mmHg 53%
    11:00 +12°C° 0 mm 5 m/S 770 mmHg 49%
    12:00 +13°C° 0 mm 5 m/S 770 mmHg 45%
    13:00 +13°C° 0 mm 4 m/S 770 mmHg 42%
    14:00 +13°C° 0 mm 4 m/S 770 mmHg 43%
    15:00 +13°C° 0 mm 3 m/S 770 mmHg 45%
    16:00 +13°C° 0 mm 3 m/S 770 mmHg 46%
    17:00 +12°C° 0 mm 3 m/S 770 mmHg 49%
    18:00 +10°C° 0 mm 2 m/S 771 mmHg 52%
    19:00 +9°C° 0 mm 2 m/S 771 mmHg 55%
    20:00 +9°C° 0 mm 2 m/S 771 mmHg 58%
    21:00 +8°C° 0 mm 2 m/S 772 mmHg 60%
    22:00 +8°C° 0 mm 2 m/S 772 mmHg 62%
    23:00 +7°C° 0 mm 2 m/S 772 mmHg 64%

    übermorgen, 26 September, Mittwoch

    Zeit Temperatur Niederschläge Wind Luftdruck Luftfeuchtigkeit
    00:00 +7°C° 0 mm 2 m/S 772 mmHg 65%
    01:00 +7°C° 0 mm 2 m/S 772 mmHg 67%
    02:00 +6°C° 0 mm 2 m/S 772 mmHg 68%
    03:00 +6°C° 0 mm 2 m/S 771 mmHg 70%
    04:00 +5°C° 0 mm 3 m/S 771 mmHg 71%
    05:00 +5°C° 0 mm 3 m/S 771 mmHg 71%
    06:00 +5°C° 0 mm 3 m/S 771 mmHg 70%
    07:00 +7°C° 0 mm 3 m/S 771 mmHg 70%
    08:00 +8°C° 0 mm 4 m/S 771 mmHg 63%
    09:00 +11°C° 0 mm 4 m/S 770 mmHg 56%
    10:00 +13°C° 0 mm 5 m/S 770 mmHg 49%
    11:00 +13°C° 0 mm 5 m/S 770 mmHg 46%
    12:00 +14°C° 0 mm 5 m/S 769 mmHg 44%
    13:00 +15°C° 0 mm 6 m/S 768 mmHg 41%
    14:00 +15°C° 0 mm 5 m/S 768 mmHg 43%
    15:00 +15°C° 0 mm 5 m/S 767 mmHg 45%
    16:00 +15°C° 0 mm 4 m/S 767 mmHg 46%
    17:00 +14°C° 0 mm 4 m/S 767 mmHg 48%
    18:00 +13°C° 0 mm 4 m/S 767 mmHg 50%
    19:00 +12°C° 0 mm 4 m/S 766 mmHg 51%
    20:00 +12°C° 0 mm 4 m/S 766 mmHg 52%
    21:00 +12°C° 0 mm 4 m/S 766 mmHg 53%
    22:00 +12°C° 0 mm 5 m/S 766 mmHg 53%
    23:00 +12°C° 0 mm 5 m/S 766 mmHg 54%

    27 September, Donnerstag

    Zeit Temperatur Niederschläge Wind Luftdruck Luftfeuchtigkeit
    00:00 +12°C° 0 mm 5 m/S 766 mmHg 55%
    01:00 +12°C° 0 mm 5 m/S 765 mmHg 55%
    02:00 +12°C° 0 mm 5 m/S 765 mmHg 56%
    03:00 +12°C° 0 mm 5 m/S 765 mmHg 57%
    04:00 +12°C° 0 mm 5 m/S 765 mmHg 58%
    05:00 +12°C° 0 mm 5 m/S 765 mmHg 60%
    06:00 +12°C° 0 mm 5 m/S 765 mmHg 62%
    07:00 +12°C° 0 mm 5 m/S 765 mmHg 63%
    08:00 +13°C° 0 mm 5 m/S 765 mmHg 62%
    09:00 +15°C° 0 mm 6 m/S 765 mmHg 60%
    10:00 +16°C° 0 mm 6 m/S 765 mmHg 58%
    11:00 +19°C° 0 mm 6 m/S 764 mmHg 58%
    12:00 +20°C° 0 mm 6 m/S 764 mmHg 57%
    13:00 +21°C° 0 mm 6 m/S 764 mmHg 56%
    14:00 +21°C° 0 mm 5 m/S 763 mmHg 57%
    15:00 +21°C° 0 mm 5 m/S 763 mmHg 58%
    16:00 +21°C° 0 mm 4 m/S 763 mmHg 59%
    17:00 +20°C° 0 mm 4 m/S 763 mmHg 64%
    18:00 +18°C° 0 mm 3 m/S 762 mmHg 69%
    19:00 +17°C° 0 mm 3 m/S 762 mmHg 75%
    20:00 +16°C° 0 mm 3 m/S 762 mmHg 75%
    21:00 +16°C° 0 mm 3 m/S 762 mmHg 75%
    22:00 +16°C° 0 mm 3 m/S 762 mmHg 75%
    23:00 +14°C° 0 mm 3 m/S 761 mmHg 75%

    28 September, Freitag

    Zeit Temperatur Niederschläge Wind Luftdruck Luftfeuchtigkeit
    00:00 +14°C° 0 mm 3 m/S 761 mmHg 74%
    01:00 +14°C° 0 mm 3 m/S 760 mmHg 73%
    02:00 +13°C° 0 mm 3 m/S 760 mmHg 73%
    03:00 +13°C° 0 mm 3 m/S 760 mmHg 72%
    04:00 +13°C° 0 mm 3 m/S 759 mmHg 71%
    05:00 +13°C° 0 mm 3 m/S 759 mmHg 71%
    06:00 +13°C° 0 mm 4 m/S 759 mmHg 71%
    07:00 +13°C° 0 mm 4 m/S 759 mmHg 71%
    08:00 +14°C° 0 mm 4 m/S 759 mmHg 68%
    09:00 +17°C° 0 mm 4 m/S 759 mmHg 64%
    10:00 +18°C° 0 mm 4 m/S 759 mmHg 61%
    11:00 +19°C° 0 mm 4 m/S 759 mmHg 59%
    12:00 +19°C° 0 mm 4 m/S 759 mmHg 57%
    13:00 +20°C° 0 mm 4 m/S 759 mmHg 56%
    14:00 +19°C° 0 mm 4 m/S 759 mmHg 58%
    15:00 +18°C° 0 mm 4 m/S 759 mmHg 60%
    16:00 +18°C° 0 mm 4 m/S 759 mmHg 63%
    17:00 +17°C° 0 mm 3 m/S 759 mmHg 64%
    18:00 +16°C° 0 mm 3 m/S 759 mmHg 65%
    19:00 +15°C° 0 mm 2 m/S 759 mmHg 67%
    20:00 +14°C° 0.1 mm 3 m/S 760 mmHg 67%
    21:00 +13°C° 0.1 mm 3 m/S 760 mmHg 67%
    22:00 +13°C° 0.1 mm 3 m/S 760 mmHg 67%
    23:00 +13°C° 0.1 mm 2 m/S 760 mmHg 70%

    29 September, Samstag

    Zeit Temperatur Niederschläge Wind Luftdruck Luftfeuchtigkeit
    00:00 +12°C° 0.1 mm 2 m/S 761 mmHg 73%
    01:00 +12°C° 0.1 mm 2 m/S 761 mmHg 76%
    02:00 +10°C° 0 mm 2 m/S 761 mmHg 79%
    03:00 +9°C° 0 mm 2 m/S 761 mmHg 82%
    04:00 +8°C° 0 mm 2 m/S 761 mmHg 85%
    05:00 +8°C° 0 mm 2 m/S 762 mmHg 85%
    06:00 +8°C° 0 mm 2 m/S 762 mmHg 84%
    07:00 +8°C° 0 mm 2 m/S 763 mmHg 84%
    08:00 +10°C° 0 mm 2 m/S 763 mmHg 75%
    09:00 +12°C° 0 mm 2 m/S 764 mmHg 67%
    10:00 +13°C° 0 mm 3 m/S 764 mmHg 59%
    11:00 +14°C° 0 mm 2 m/S 764 mmHg 54%
    12:00 +15°C° 0 mm 2 m/S 764 mmHg 48%
    13:00 +16°C° 0 mm 2 m/S 764 mmHg 43%
    14:00 +15°C° 0 mm 2 m/S 764 mmHg 43%
    15:00 +15°C° 0 mm 2 m/S 764 mmHg 43%
    16:00 +15°C° 0 mm 2 m/S 764 mmHg 43%
    17:00 +14°C° 0 mm 2 m/S 764 mmHg 47%
    18:00 +13°C° 0 mm 2 m/S 764 mmHg 51%
    19:00 +11°C° 0 mm 1 m/S 764 mmHg 55%
    20:00 +10°C° 0 mm 2 m/S 765 mmHg 57%
    21:00 +9°C° 0 mm 2 m/S 765 mmHg 58%
    22:00 +9°C° 0 mm 2 m/S 765 mmHg 60%
    23:00 +8°C° 0 mm 2 m/S 765 mmHg 61%
    Mehr zeigen